| time (UTC) | temp F | wind direction | speed knots | gust knots | rain 1hr in | rain 24hr in | rain mn in | humidity % | barometer mb |
| 20260505035519 | 50 | 359 | 0.0 | 4.3 | 0.00 | 0.00 | 0.00 | 48 | 1013.6 |
| 20260505035016 | 50 | 359 | 0.0 | 2.6 | 0.00 | 0.00 | 0.00 | 49 | 1013.7 |
| 20260505034516 | 50 | 359 | 0.0 | 2.6 | 0.00 | 0.00 | 0.00 | 48 | 1013.7 |
| 20260505034015 | 50 | 359 | 0.9 | 2.6 | 0.00 | 0.00 | 0.00 | 48 | 1013.6 |
| 20260505033613 | 51 | 359 | 0.9 | 4.3 | 0.00 | 0.00 | 0.00 | 48 | 1013.5 |
| 20260505033011 | 51 | 359 | 0.0 | 2.6 | 0.00 | 0.00 | 0.00 | 47 | 1013.3 |
| 20260505032510 | 51 | 359 | 0.0 | 4.3 | 0.00 | 0.00 | 0.00 | 47 | 1013.3 |
| 20260505032008 | 51 | 359 | 0.0 | 4.3 | 0.00 | 0.00 | 0.00 | 48 | 1013.2 |
| 20260505031508 | 51 | 359 | 1.7 | 5.2 | 0.00 | 0.00 | 0.00 | 47 | 1013.2 |
| 20260505031008 | 51 | 359 | 0.0 | 5.2 | 0.00 | 0.00 | 0.00 | 47 | 1012.9 |
| 20260505030507 | 52 | 359 | 0.9 | 7.8 | 0.00 | 0.00 | 0.00 | 47 | 1012.9 |
| 20260505030007 | 52 | 359 | 1.7 | 7.8 | 0.00 | 0.00 | 0.00 | 47 | 1012.9 |
| 20260505025511 | 52 | 359 | 0.0 | 3.5 | 0.00 | 0.00 | 0.00 | 47 | 1012.9 |
| 20260505025008 | 53 | 359 | 1.7 | 5.2 | 0.00 | 0.00 | 0.00 | 46 | 1012.9 |
| 20260505024510 | 53 | 359 | 0.9 | 7.0 | 0.00 | 0.00 | 0.00 | 46 | 1012.9 |
| 20260505024006 | 54 | 359 | 2.6 | 7.0 | 0.00 | 0.00 | 0.00 | 45 | 1012.8 |
| 20260505023505 | 54 | 359 | 1.7 | 7.8 | 0.00 | 0.00 | 0.00 | 45 | 1012.8 |
| 20260505023005 | 55 | 359 | 1.7 | 7.8 | 0.00 | 0.00 | 0.00 | 45 | 1012.6 |
| 20260505022504 | 55 | 359 | 0.9 | 7.0 | 0.00 | 0.00 | 0.00 | 46 | 1012.6 |
| 20260505022004 | 56 | 359 | 0.9 | 4.3 | 0.00 | 0.00 | 0.00 | 46 | 1012.7 |
| 20260505021505 | 56 | 359 | 1.7 | 4.3 | 0.00 | 0.00 | 0.00 | 46 | 1012.6 |
| 20260505021003 | 56 | 359 | 2.6 | 7.0 | 0.00 | 0.00 | 0.00 | 44 | 1012.6 |
| 20260505020503 | 57 | 359 | 3.5 | 8.7 | 0.00 | 0.00 | 0.00 | 43 | 1012.5 |
| 20260505020007 | 57 | 359 | 2.6 | 8.7 | 0.00 | 0.00 | 0.00 | 43 | 1012.6 |
| 20260505015503 | 58 | 359 | 0.9 | 7.0 | 0.00 | 0.00 | 0.00 | 43 | 1012.5 |
| 20260505015003 | 58 | 359 | 0.9 | 4.3 | 0.00 | 0.00 | 0.00 | 43 | 1012.5 |
| 20260505014502 | 58 | 359 | 0.9 | 3.5 | 0.00 | 0.00 | 0.00 | 43 | 1012.4 |
| 20260505014004 | 58 | 359 | 1.7 | 7.0 | 0.00 | 0.00 | 0.00 | 43 | 1012.3 |
| 20260505013502 | 58 | 359 | 2.6 | 7.0 | 0.00 | 0.00 | 0.00 | 42 | 1012.3 |
| 20260505013001 | 59 | 359 | 2.6 | 4.3 | 0.00 | 0.00 | 0.00 | 42 | 1012.2 |
| 20260505012501 | 59 | 359 | 0.9 | 8.7 | 0.00 | 0.00 | 0.00 | 42 | 1012.2 |
| 20260505012004 | 59 | 359 | 1.7 | 8.7 | 0.00 | 0.00 | 0.00 | 43 | 1012.1 |
| 20260505011501 | 59 | 359 | 3.5 | 7.8 | 0.00 | 0.00 | 0.00 | 42 | 1012.1 |
| 20260505011002 | 59 | 359 | 1.7 | 7.8 | 0.00 | 0.00 | 0.00 | 43 | 1012.1 |
| 20260505010500 | 59 | 359 | 3.5 | 7.8 | 0.00 | 0.00 | 0.00 | 42 | 1012.1 |
| 20260505010001 | 59 | 359 | 2.6 | 7.8 | 0.00 | 0.00 | 0.00 | 42 | 1012.1 |
| 20260505005501 | 59 | 359 | 2.6 | 7.0 | 0.00 | 0.00 | 0.00 | 42 | 1012.0 |
| 20260505005102 | 59 | 359 | 0.9 | 9.6 | 0.00 | 0.00 | 0.00 | 43 | 1012.0 |
| 20260505004601 | 59 | 359 | 2.6 | 9.6 | 0.00 | 0.00 | 0.00 | 42 | 1012.1 |
| 20260505004100 | 60 | 359 | 1.7 | 7.0 | 0.00 | 0.00 | 0.00 | 42 | 1012.0 |
| 20260505003600 | 60 | 359 | 0.0 | 7.8 | 0.00 | 0.00 | 0.00 | 43 | 1012.0 |
| 20260505003100 | 60 | 359 | 2.6 | 7.8 | 0.00 | 0.00 | 0.00 | 43 | 1012.0 |
| 20260505002559 | 59 | 359 | 2.6 | 5.2 | 0.00 | 0.00 | 0.00 | 42 | 1011.9 |
| 20260505002059 | 60 | 359 | 2.6 | 7.8 | 0.00 | 0.00 | 0.00 | 41 | 1011.9 |
| 20260505001605 | 60 | 359 | 1.7 | 7.8 | 0.00 | 0.00 | 0.00 | 42 | 1012.0 |
| 20260505001059 | 60 | 359 | 0.9 | 5.2 | 0.00 | 0.00 | 0.00 | 41 | 1011.8 |
| 20260505000601 | 60 | 359 | 2.6 | 5.2 | 0.00 | 0.00 | 0.00 | 41 | 1011.9 |
| 20260504235559 | 60 | 359 | 1.7 | 3.5 | 0.00 | 0.00 | 0.00 | 43 | 1011.9 |
| 20260504235059 | 60 | 359 | 0.9 | 5.2 | 0.00 | 0.00 | 0.00 | 42 | 1011.8 |
| 20260504234559 | 60 | 359 | 0.9 | 5.2 | 0.00 | 0.00 | 0.00 | 43 | 1011.8 |
| 20260504234058 | 60 | 359 | 0.9 | 5.2 | 0.00 | 0.00 | 0.00 | 43 | 1011.7 |
| 20260504233558 | 60 | 359 | 1.7 | 5.2 | 0.00 | 0.00 | 0.00 | 43 | 1011.7 |
| 20260504233108 | 60 | 359 | 0.9 | 3.5 | 0.00 | 0.00 | 0.00 | 43 | 1011.7 |
| 20260504232658 | 60 | 359 | 1.7 | 9.6 | 0.00 | 0.00 | 0.00 | 43 | 1011.7 |
| 20260504232058 | 60 | 359 | 3.5 | 9.6 | 0.00 | 0.00 | 0.00 | 41 | 1011.8 |
| 20260504231603 | 60 | 359 | 1.7 | 7.0 | 0.00 | 0.00 | 0.00 | 42 | 1011.8 |
| 20260504231057 | 60 | 359 | 1.7 | 7.0 | 0.00 | 0.00 | 0.00 | 41 | 1011.7 |
| 20260504230557 | 60 | 359 | 1.7 | 5.2 | 0.00 | 0.00 | 0.00 | 42 | 1011.8 |
| 20260504230059 | 60 | 359 | 2.6 | 5.2 | 0.00 | 0.00 | 0.00 | 40 | 1011.8 |
| 20260504225556 | 60 | 359 | 0.0 | 7.8 | 0.00 | 0.00 | 0.00 | 40 | 1011.7 |
| 20260504225056 | 61 | 359 | 3.5 | 7.0 | 0.00 | 0.00 | 0.00 | 39 | 1011.7 |
| 20260504224556 | 61 | 359 | 1.7 | 5.2 | 0.00 | 0.00 | 0.00 | 40 | 1011.7 |
| 20260504224056 | 61 | 359 | 0.9 | 5.2 | 0.00 | 0.00 | 0.00 | 39 | 1011.8 |
| 20260504223556 | 61 | 359 | 1.7 | 5.2 | 0.00 | 0.00 | 0.00 | 41 | 1011.6 |
| 20260504223056 | 61 | 359 | 2.6 | 5.2 | 0.00 | 0.00 | 0.00 | 38 | 1011.7 |
| 20260504222555 | 61 | 359 | 1.7 | 5.2 | 0.00 | 0.00 | 0.00 | 39 | 1011.6 |
| 20260504222058 | 61 | 359 | 2.6 | 5.2 | 0.00 | 0.00 | 0.00 | 39 | 1011.5 |
| 20260504221555 | 60 | 359 | 1.7 | 7.8 | 0.00 | 0.00 | 0.00 | 41 | 1011.6 |
| 20260504221056 | 60 | 359 | 0.9 | 7.8 | 0.00 | 0.00 | 0.00 | 38 | 1011.6 |
| 20260504220555 | 61 | 14 | 2.6 | 5.2 | 0.00 | 0.00 | 0.00 | 38 | 1011.5 |
| 20260504220055 | 61 | 30 | 1.7 | 7.0 | 0.00 | 0.00 | 0.00 | 38 | 1011.6 |
| 20260504215555 | 61 | 109 | 3.5 | 7.0 | 0.00 | 0.00 | 0.00 | 38 | 1011.5 |
| 20260504215054 | 61 | 77 | 0.0 | 7.8 | 0.00 | 0.00 | 0.00 | 38 | 1011.6 |
| 20260504214556 | 61 | 45 | 2.6 | 7.8 | 0.00 | 0.00 | 0.00 | 38 | 1011.7 |
| 20260504214054 | 61 | 95 | 2.6 | 7.8 | 0.00 | 0.00 | 0.00 | 39 | 1011.6 |
| 20260504213554 | 61 | 359 | 0.9 | 7.8 | 0.00 | 0.00 | 0.00 | 39 | 1011.5 |
| 20260504213054 | 61 | 116 | 2.6 | 7.8 | 0.00 | 0.00 | 0.00 | 38 | 1011.5 |
| 20260504212553 | 60 | 359 | 3.5 | 7.8 | 0.00 | 0.00 | 0.00 | 40 | 1011.6 |
| 20260504212053 | 60 | 93 | 0.0 | 6.1 | 0.00 | 0.00 | 0.00 | 41 | 1011.6 |
| 20260504211553 | 60 | 15 | 2.6 | 8.7 | 0.00 | 0.00 | 0.00 | 41 | 1011.6 |
| 20260504211057 | 61 | 359 | 2.6 | 8.7 | 0.00 | 0.00 | 0.00 | 38 | 1011.6 |
| 20260504210553 | 61 | 359 | 0.9 | 7.0 | 0.00 | 0.00 | 0.00 | 40 | 1011.6 |
| 20260504210106 | 61 | 37 | 0.9 | 7.0 | 0.00 | 0.00 | 0.00 | 39 | 1011.5 |
| 20260504205553 | 61 | 359 | 1.7 | 7.0 | 0.00 | 0.00 | 0.00 | 39 | 1011.5 |
| 20260504205052 | 61 | 359 | 3.5 | 7.0 | 0.00 | 0.00 | 0.00 | 38 | 1011.6 |
| 20260504204559 | 61 | 39 | 1.7 | 7.8 | 0.00 | 0.00 | 0.00 | 39 | 1011.7 |
| 20260504204053 | 61 | 359 | 2.6 | 7.8 | 0.00 | 0.00 | 0.00 | 41 | 1011.6 |
| 20260504203553 | 61 | 359 | 0.9 | 7.0 | 0.00 | 0.00 | 0.00 | 42 | 1011.7 |
| 20260504203104 | 61 | 359 | 0.9 | 7.8 | 0.00 | 0.00 | 0.00 | 40 | 1011.6 |
| 20260504202552 | 61 | 73 | 3.5 | 7.8 | 0.00 | 0.00 | 0.00 | 38 | 1011.7 |
| 20260504202051 | 61 | 87 | 0.9 | 4.3 | 0.00 | 0.00 | 0.00 | 40 | 1011.6 |
| 20260504201552 | 61 | 359 | 0.9 | 5.2 | 0.00 | 0.00 | 0.00 | 40 | 1011.6 |
| 20260504201055 | 61 | 359 | 0.9 | 5.2 | 0.00 | 0.00 | 0.00 | 40 | 1011.6 |
| 20260504200551 | 60 | 359 | 1.7 | 7.0 | 0.00 | 0.00 | 0.00 | 43 | 1011.6 |
| 20260504200051 | 60 | 359 | 3.5 | 7.0 | 0.00 | 0.00 | 0.00 | 42 | 1011.7 |
| 20260504195551 | 60 | 359 | 3.5 | 10.4 | 0.00 | 0.00 | 0.00 | 42 | 1011.5 |
| 20260504195051 | 60 | 17 | 3.5 | 10.4 | 0.00 | 0.00 | 0.00 | 42 | 1011.6 |
| 20260504194600 | 60 | 359 | 0.9 | 8.7 | 0.00 | 0.00 | 0.00 | 43 | 1011.7 |
| 20260504194051 | 60 | 359 | 1.7 | 8.7 | 0.00 | 0.00 | 0.00 | 42 | 1011.8 |
| 20260504193551 | 60 | 359 | 3.5 | 8.7 | 0.00 | 0.00 | 0.00 | 43 | 1011.7 |
| 20260504193051 | 60 | 359 | 1.7 | 7.8 | 0.00 | 0.00 | 0.00 | 42 | 1011.8 |
| 20260504192550 | 60 | 359 | 0.9 | 7.0 | 0.00 | 0.00 | 0.00 | 41 | 1011.7 |
| 20260504192049 | 61 | 359 | 1.7 | 7.0 | 0.00 | 0.00 | 0.00 | 40 | 1011.7 |
| 20260504191550 | 62 | 359 | 1.7 | 7.0 | 0.00 | 0.00 | 0.00 | 40 | 1011.7 |
| 20260504191050 | 62 | 359 | 0.9 | 8.7 | 0.00 | 0.00 | 0.00 | 38 | 1011.7 |
| 20260504190549 | 62 | 359 | 2.6 | 8.7 | 0.00 | 0.00 | 0.00 | 38 | 1011.8 |
| 20260504190107 | 61 | 359 | 1.7 | 7.0 | 0.00 | 0.00 | 0.00 | 43 | 1011.8 |
| 20260504185548 | 61 | 359 | 1.7 | 7.8 | 0.00 | 0.00 | 0.00 | 41 | 1011.8 |
| 20260504185046 | 61 | 359 | 3.5 | 7.8 | 0.00 | 0.00 | 0.00 | 39 | 1011.8 |
| 20260504184546 | 60 | 359 | 0.9 | 5.2 | 0.00 | 0.00 | 0.00 | 41 | 1011.9 |
| 20260504184049 | 60 | 359 | 1.7 | 7.0 | 0.00 | 0.00 | 0.00 | 41 | 1011.9 |
| 20260504183546 | 60 | 359 | 1.7 | 7.0 | 0.00 | 0.00 | 0.00 | 40 | 1011.9 |
| 20260504183046 | 60 | 359 | 2.6 | 7.0 | 0.00 | 0.00 | 0.00 | 43 | 1011.9 |
| 20260504182545 | 60 | 359 | 0.9 | 7.0 | 0.00 | 0.00 | 0.00 | 40 | 1011.9 |
| 20260504182045 | 60 | 359 | 0.9 | 4.3 | 0.00 | 0.00 | 0.00 | 41 | 1011.9 |
| 20260504181549 | 60 | 359 | 0.9 | 4.3 | 0.00 | 0.00 | 0.00 | 42 | 1011.9 |
| 20260504181044 | 60 | 359 | 1.7 | 5.2 | 0.00 | 0.00 | 0.00 | 43 | 1012.0 |
| 20260504180544 | 60 | 359 | 0.9 | 5.2 | 0.00 | 0.00 | 0.00 | 42 | 1012.0 |
| 20260504180041 | 59 | 359 | 2.6 | 5.2 | 0.00 | 0.00 | 0.00 | 41 | 1012.0 |
| 20260504175543 | 59 | 359 | 1.7 | 7.0 | 0.00 | 0.00 | 0.00 | 43 | 1011.9 |
| 20260504175041 | 59 | 359 | 3.5 | 7.8 | 0.00 | 0.00 | 0.00 | 41 | 1012.1 |
| 20260504174541 | 59 | 359 | 2.6 | 5.2 | 0.00 | 0.00 | 0.00 | 41 | 1012.1 |
| 20260504174041 | 59 | 359 | 0.9 | 7.0 | 0.00 | 0.00 | 0.00 | 42 | 1012.1 |
| 20260504173539 | 59 | 254 | 1.7 | 5.2 | 0.00 | 0.00 | 0.00 | 42 | 1012.0 |
| 20260504173038 | 59 | 359 | 0.9 | 4.3 | 0.00 | 0.00 | 0.00 | 43 | 1012.1 |
| 20260504172537 | 58 | 359 | 0.9 | 8.7 | 0.00 | 0.00 | 0.00 | 41 | 1012.1 |
| 20260504172037 | 58 | 359 | 1.7 | 8.7 | 0.00 | 0.00 | 0.00 | 42 | 1012.2 |
| 20260504171536 | 58 | 359 | 0.9 | 4.3 | 0.00 | 0.00 | 0.00 | 43 | 1012.2 |
| 20260504171038 | 58 | 359 | 1.7 | 4.3 | 0.00 | 0.00 | 0.00 | 44 | 1012.2 |
| 20260504170535 | 58 | 359 | 0.9 | 7.8 | 0.00 | 0.00 | 0.00 | 44 | 1012.1 |
| 20260504151024 | 53 | 359 | 0.9 | 5.2 | 0.00 | 0.00 | 0.00 | 50 | 1012.3 |
| 20260504150529 | 52 | 359 | 0.9 | 5.2 | 0.00 | 0.00 | 0.00 | 50 | 1012.3 |
| 20260504141022 | 51 | 359 | 0.9 | 3.5 | 0.00 | 0.00 | 0.00 | 52 | 1012.2 |
| 20260504140525 | 50 | 359 | 0.0 | 2.6 | 0.00 | 0.00 | 0.00 | 52 | 1012.2 |
| 20260504130516 | 48 | 359 | 0.9 | 1.7 | 0.00 | 0.00 | 0.00 | 62 | 1011.5 |
| 20260504110504 | 52 | 359 | 0.9 | 3.5 | 0.00 | 0.00 | 0.00 | 54 | 1010.5 |
| 20260504100559 | 53 | 359 | 0.9 | 4.3 | 0.00 | 0.00 | 0.00 | 50 | 1010.4 |
| 20260504081556 | 55 | 359 | 1.7 | 5.2 | 0.00 | 0.00 | 0.00 | 53 | 1009.3 |
| 20260504081047 | 55 | 359 | 1.7 | 7.8 | 0.00 | 0.00 | 0.00 | 56 | 1009.3 |
| 20260504080550 | 53 | 359 | 4.3 | 7.8 | 0.00 | 0.00 | 0.00 | 62 | 1009.2 |
| 20260504050528 | 50 | 359 | 1.7 | 3.5 | 0.00 | 0.00 | 0.00 | 70 | 1008.9 |
| 20260504045527 | 51 | 359 | 1.7 | 4.3 | 0.00 | 0.00 | 0.00 | 73 | 1009.0 |
| 20260504045027 | 51 | 359 | 0.9 | 2.6 | 0.00 | 0.00 | 0.00 | 73 | 1009.0 |
| 20260504044529 | 51 | 359 | 0.9 | 1.7 | 0.00 | 0.00 | 0.00 | 73 | 1009.1 |
| 20260504044030 | 51 | 359 | 0.0 | 0.9 | 0.00 | 0.00 | 0.00 | 67 | 1009.1 |
| 20260504043527 | 51 | 359 | 0.0 | 0.9 | 0.00 | 0.00 | 0.00 | 64 | 1009.0 |
| 20260504043027 | 51 | 359 | 0.0 | 0.9 | 0.00 | 0.00 | 0.00 | 66 | 1009.0 |
| 20260504042527 | 52 | 359 | 0.0 | 0.9 | 0.00 | 0.00 | 0.00 | 70 | 1009.0 |
| 20260504042026 | 52 | 359 | 0.0 | 0.9 | 0.00 | 0.00 | 0.00 | 73 | 1009.0 |
| 20260504041526 | 52 | 359 | 0.0 | 1.7 | 0.00 | 0.00 | 0.00 | 74 | 1009.0 |
| 20260504041027 | 53 | 359 | 0.0 | 2.6 | 0.00 | 0.00 | 0.00 | 71 | 1009.0 |
| 20260504040526 | 53 | 359 | 0.0 | 2.6 | 0.00 | 0.00 | 0.00 | 69 | 1008.9 |
| 20260504040026 | 54 | 359 | 0.0 | 0.9 | 0.00 | 0.00 | 0.00 | 70 | 1008.9 |